JCSAT-18 (KACIFIC 1)

Last updated on Jan. 20, 2021, 6:22 a.m. UTC

1 44868U 19091A   21019.62447608 -.00000197  00000-0  00000-0 0  9998
2 44868   0.0322 132.8522 0001015 215.5820 145.5605  1.00271748  4226
UTC
Height (km)
Latitude
Longitude
Inclination
Orbital Period
UTC large
Height (km)
Speed (km/s)
/
Latitude / Longitude
Inclination (degrees)
Orbital Period (minutes)
Azimuth
Elevation
Range (km)
Doppler Factor
iOS Compass Heading
iOS Angle

Next 30 passes for location: Hong Kong

Rise time Rise Azimuth (degrees) Set time Set Azimuth (degrees) Duration Max altitude (degrees)

No matching passes for this satellites